PBD167 UUWW-URMM

Flight info

Callsign PBD167
Flight time 2h 42m
Altitude 35000
Route TOGMO3B TOGMO M56 ABAGI B105 NIMTA/K0852F360 B105 NATIT DCT MOLED N50 LIDUS DCT AMKOL DCT GOTIK DCT MEMZA A962 OKARU OKARU5A
Aircraft B738/M-URKE/L

Departure

Time 2026-04-21 15:16
Airport Vnukovo International Airport (UUWW)

Arrival

Time 2026-04-21 17:59
Airport Mineralnye Vody Airport (URMM)
Time Latitude Longitude Altitude Speed Heading
2026-04-21 14:56 55.60154 37.28263 694 ft 0 kts 319°
2026-04-21 15:05 55.60154 37.28264 694 ft 0 kts 319°
2026-04-21 15:06 55.60153 37.28266 694 ft 2 kts 319°
2026-04-21 15:06 55.60132 37.28292 685 ft 4 kts 336°
2026-04-21 15:06 55.60107 37.28302 686 ft 4 kts
2026-04-21 15:06 55.60085 37.28287 691 ft 4 kts 56°
2026-04-21 15:07 55.60081 37.28270 686 ft 1 kts 84°
2026-04-21 15:09 55.60083 37.28313 690 ft 8 kts 84°
2026-04-21 15:09 55.60104 37.28443 689 ft 13 kts 49°
2026-04-21 15:09 55.60175 37.28580 689 ft 17 kts 47°
2026-04-21 15:09 55.60182 37.28769 690 ft 20 kts 134°
2026-04-21 15:10 55.60058 37.28728 688 ft 23 kts 228°
2026-04-21 15:10 55.59948 37.28491 689 ft 27 kts 246°
2026-04-21 15:10 55.59814 37.28265 692 ft 29 kts 247°
2026-04-21 15:10 55.59739 37.27929 693 ft 30 kts 248°
2026-04-21 15:11 55.59666 37.27598 687 ft 28 kts 249°
2026-04-21 15:11 55.59595 37.27287 692 ft 26 kts 248°
2026-04-21 15:11 55.59526 37.26998 688 ft 25 kts 240°
2026-04-21 15:11 55.59427 37.26812 693 ft 7 kts 222°
2026-04-21 15:12 55.59393 37.26759 687 ft 6 kts 222°
2026-04-21 15:12 55.59360 37.26706 689 ft 6 kts 222°
2026-04-21 15:12 55.59321 37.26643 691 ft 10 kts 222°
2026-04-21 15:12 55.59246 37.26544 692 ft 16 kts 203°
2026-04-21 15:13 55.59175 37.26492 692 ft 18 kts 204°
2026-04-21 15:13 55.59021 37.26373 686 ft 18 kts 203°
2026-04-21 15:13 55.58907 37.26285 694 ft 18 kts 203°
2026-04-21 15:13 55.58819 37.26156 692 ft 11 kts 247°
2026-04-21 15:14 55.58815 37.26141 689 ft 0 kts 249°
2026-04-21 15:14 55.58813 37.26129 689 ft 6 kts 249°
2026-04-21 15:15 55.58786 37.25956 693 ft 19 kts 283°
2026-04-21 15:15 55.58847 37.25906 693 ft 12 kts 22°
2026-04-21 15:15 55.58885 37.25935 690 ft 2 kts 23°
2026-04-21 15:15 55.58888 37.25938 691 ft 3 kts 23°
2026-04-21 15:16 55.58999 37.26022 694 ft 51 kts 23°
2026-04-21 15:16 55.59554 37.26445 687 ft 120 kts 24°
2026-04-21 15:16 55.60494 37.27173 772 ft 168 kts 25°
2026-04-21 15:16 55.61625 37.28121 1287 ft 189 kts 26°
2026-04-21 15:17 55.62781 37.29206 2222 ft 183 kts 37°
2026-04-21 15:17 55.63410 37.31132 3011 ft 195 kts 78°
2026-04-21 15:17 55.63220 37.33688 3263 ft 229 kts 108°
2026-04-21 15:17 55.62251 37.36066 3734 ft 249 kts 137°
2026-04-21 15:18 55.60694 37.37714 4195 ft 270 kts 153°
2026-04-21 15:18 55.58928 37.39001 4963 ft 277 kts 156°
2026-04-21 15:18 55.57121 37.40218 5855 ft 278 kts 157°
2026-04-21 15:18 55.55305 37.41437 6699 ft 281 kts 156°
2026-04-21 15:19 55.53469 37.42689 7488 ft 285 kts 156°
2026-04-21 15:19 55.51608 37.43975 8255 ft 288 kts 155°
2026-04-21 15:19 55.49748 37.45270 8623 ft 289 kts 155°
2026-04-21 15:19 55.47862 37.46593 8653 ft 294 kts 155°
2026-04-21 15:20 55.45996 37.47904 8665 ft 291 kts 155°
2026-04-21 15:20 55.44117 37.49225 8657 ft 290 kts 155°
2026-04-21 15:20 55.42244 37.50543 8663 ft 289 kts 155°
2026-04-21 15:20 55.40372 37.51859 8653 ft 289 kts 155°
2026-04-21 15:21 55.38510 37.53167 8663 ft 288 kts 155°
2026-04-21 15:21 55.36645 37.54487 8661 ft 288 kts 153°
2026-04-21 15:21 55.34926 37.56279 8785 ft 289 kts 140°
2026-04-21 15:21 55.33313 37.58424 9480 ft 292 kts 139°
2026-04-21 15:22 55.31681 37.60609 9640 ft 297 kts 139°
2026-04-21 15:22 55.30036 37.62753 9650 ft 293 kts 140°
2026-04-21 15:22 55.28402 37.64849 9644 ft 289 kts 140°
2026-04-21 15:22 55.26771 37.66933 9675 ft 291 kts 140°
2026-04-21 15:23 55.25119 37.69044 10157 ft 296 kts 140°
2026-04-21 15:23 55.23456 37.71166 10948 ft 297 kts 141°
2026-04-21 15:23 55.21742 37.73355 11329 ft 314 kts 141°
2026-04-21 15:23 55.19965 37.75619 11870 ft 323 kts 141°
2026-04-21 15:24 55.18134 37.77944 12594 ft 327 kts 142°
2026-04-21 15:24 55.16310 37.80350 13318 ft 330 kts 136°
2026-04-21 15:24 55.14662 37.83167 13642 ft 333 kts 131°
2026-04-21 15:24 55.13087 37.86143 13640 ft 332 kts 130°
2026-04-21 15:25 55.11515 37.89094 13649 ft 332 kts 131°
2026-04-21 15:25 55.09924 37.92032 13672 ft 335 kts 131°
2026-04-21 15:25 55.08301 37.95002 14103 ft 339 kts 132°
2026-04-21 15:25 55.06671 37.97965 14780 ft 339 kts 132°
2026-04-21 15:26 55.05034 38.00931 15412 ft 341 kts 132°
2026-04-21 15:26 55.03377 38.03923 15988 ft 344 kts 132°
2026-04-21 15:26 55.01700 38.06933 16551 ft 348 kts 132°
2026-04-21 15:26 55.00001 38.09974 17125 ft 351 kts 132°
2026-04-21 15:27 54.98289 38.13036 17704 ft 354 kts 132°
2026-04-21 15:27 54.96558 38.16129 18265 ft 358 kts 132°
2026-04-21 15:27 54.94817 38.19238 18753 ft 360 kts 133°
2026-04-21 15:27 54.93063 38.22367 18848 ft 361 kts 133°
2026-04-21 15:28 54.91311 38.25488 18879 ft 360 kts 132°
2026-04-21 15:28 54.89559 38.28608 18882 ft 361 kts 133°
2026-04-21 15:28 54.87803 38.31729 18885 ft 361 kts 133°
2026-04-21 15:28 54.86046 38.34846 18892 ft 362 kts 133°
2026-04-21 15:29 54.84441 38.38182 18889 ft 362 kts 119°
2026-04-21 15:29 54.83207 38.42030 19298 ft 364 kts 116°
2026-04-21 15:29 54.82034 38.45829 19956 ft 361 kts 116°
2026-04-21 15:29 54.80836 38.49661 20519 ft 362 kts 117°
2026-04-21 15:30 54.79610 38.53506 20893 ft 366 kts 117°
2026-04-21 15:30 54.78370 38.57342 20879 ft 365 kts 117°
2026-04-21 15:30 54.77119 38.61173 20897 ft 367 kts 120°
2026-04-21 15:30 54.75479 38.64569 20894 ft 372 kts 140°
2026-04-21 15:31 54.73286 38.67067 21019 ft 384 kts 148°
2026-04-21 15:31 54.70946 38.69439 21119 ft 397 kts 149°
2026-04-21 15:31 54.68520 38.71874 21217 ft 409 kts 149°
2026-04-21 15:31 54.66039 38.74402 21405 ft 417 kts 148°
2026-04-21 15:32 54.63536 38.76988 21808 ft 420 kts 148°
2026-04-21 15:32 54.61034 38.79585 22308 ft 420 kts 148°
2026-04-21 15:32 54.58527 38.82186 22760 ft 421 kts 148°
2026-04-21 15:32 54.56008 38.84793 23161 ft 424 kts 148°
2026-04-21 15:33 54.53476 38.87409 23543 ft 426 kts 148°
2026-04-21 15:33 54.50930 38.90035 23878 ft 428 kts 148°
2026-04-21 15:33 54.48369 38.92675 24214 ft 429 kts 148°
2026-04-21 15:33 54.45804 38.95314 24535 ft 431 kts 148°
2026-04-21 15:34 54.43222 38.97966 24841 ft 433 kts 148°
2026-04-21 15:34 54.40742 39.00908 25150 ft 434 kts 137°
2026-04-21 15:34 54.38711 39.04630 25457 ft 434 kts 126°
2026-04-21 15:34 54.37128 39.09024 25761 ft 434 kts 114°
2026-04-21 15:35 54.36000 39.13823 26066 ft 434 kts 110°
2026-04-21 15:35 54.34904 39.18745 26349 ft 436 kts 110°
2026-04-21 15:35 54.33799 39.23530 26611 ft 439 kts 111°
2026-04-21 15:35 54.32644 39.28379 26878 ft 440 kts 111°
2026-04-21 15:36 54.31471 39.33226 27153 ft 442 kts 111°
2026-04-21 15:36 54.30286 39.38094 27424 ft 443 kts 112°
2026-04-21 15:36 54.29096 39.42969 27680 ft 445 kts 112°
2026-04-21 15:36 54.27902 39.47863 27931 ft 446 kts 112°
2026-04-21 15:37 54.26703 39.52768 28173 ft 448 kts 112°
2026-04-21 15:37 54.25499 39.57691 28425 ft 449 kts 112°
2026-04-21 15:37 54.24290 39.62626 28665 ft 451 kts 112°
2026-04-21 15:37 54.23076 39.67571 28897 ft 452 kts 112°
2026-04-21 15:38 54.21855 39.72534 29118 ft 453 kts 112°
2026-04-21 15:38 54.20628 39.77514 29411 ft 453 kts 112°
2026-04-21 15:38 54.19403 39.82468 29774 ft 451 kts 112°
2026-04-21 15:38 54.18183 39.87395 30131 ft 449 kts 112°
2026-04-21 15:39 54.16965 39.92302 30366 ft 449 kts 112°
2026-04-21 15:39 54.15743 39.97215 30529 ft 451 kts 112°
2026-04-21 15:39 54.14514 40.02149 30722 ft 452 kts 112°
2026-04-21 15:39 54.13284 40.07075 30920 ft 453 kts 112°
2026-04-21 15:40 54.12048 40.12019 31143 ft 453 kts 112°
2026-04-21 15:40 54.10973 40.17063 31354 ft 453 kts 107°
2026-04-21 15:40 54.10063 40.22203 31573 ft 453 kts 105°
2026-04-21 15:40 54.09201 40.27360 31760 ft 454 kts 105°
2026-04-21 15:41 54.08343 40.32533 31973 ft 454 kts 105°
2026-04-21 15:41 54.07471 40.37718 32180 ft 454 kts 105°
2026-04-21 15:41 54.06585 40.42882 32386 ft 455 kts 106°
2026-04-21 15:41 54.05699 40.47970 32587 ft 456 kts 106°
2026-04-21 15:42 54.04788 40.53153 32765 ft 456 kts 106°
2026-04-21 15:42 54.03874 40.58318 32972 ft 456 kts 106°
2026-04-21 15:42 54.02954 40.63495 33155 ft 457 kts 106°
2026-04-21 15:42 54.02031 40.68680 33346 ft 458 kts 106°
2026-04-21 15:43 54.01105 40.73867 33547 ft 458 kts 106°
2026-04-21 15:43 54.00178 40.79051 33732 ft 459 kts 107°
2026-04-21 15:43 53.99248 40.84235 33927 ft 459 kts 107°
2026-04-21 15:43 53.98314 40.89431 34010 ft 461 kts 107°
2026-04-21 15:44 53.96422 40.99916 34109 ft 467 kts 107°
2026-04-21 15:44 53.94560 41.10547 34235 ft 472 kts 105°
2026-04-21 15:45 53.92825 41.21335 34372 ft 475 kts 105°
2026-04-21 15:45 53.91081 41.32152 34557 ft 476 kts 105°
2026-04-21 15:46 53.90194 41.37567 34665 ft 476 kts 105°
2026-04-21 15:46 53.89303 41.42966 34793 ft 475 kts 105°
2026-04-21 15:46 53.88409 41.48358 34906 ft 474 kts 105°
2026-04-21 15:46 53.87523 41.53678 34899 ft 476 kts 105°
2026-04-21 15:47 53.85710 41.64525 34919 ft 480 kts 106°
2026-04-21 15:47 53.83880 41.75419 34918 ft 482 kts 106°
2026-04-21 15:48 53.82013 41.86335 34910 ft 484 kts 106°
2026-04-21 15:48 53.80118 41.97288 34910 ft 484 kts 107°
2026-04-21 15:49 53.78220 42.08216 34909 ft 484 kts 107°
2026-04-21 15:49 53.76314 42.19135 34904 ft 484 kts 107°
2026-04-21 15:50 53.74402 42.30029 34904 ft 483 kts 107°
2026-04-21 15:50 53.72478 42.40922 34901 ft 483 kts 107°
2026-04-21 15:51 53.70552 42.51772 34899 ft 482 kts 107°
2026-04-21 15:51 53.68434 42.62417 34873 ft 481 kts 120°
2026-04-21 15:52 53.66461 42.66944 34917 ft 478 kts 135°
2026-04-21 15:52 53.63868 42.70509 34882 ft 476 kts 151°
2026-04-21 15:52 53.57885 42.75046 34898 ft 475 kts 159°
2026-04-21 15:53 53.51765 42.79265 34894 ft 475 kts 159°
2026-04-21 15:53 53.45658 42.83569 34891 ft 476 kts 158°
2026-04-21 15:54 53.39571 42.87925 34891 ft 476 kts 158°
2026-04-21 15:54 53.33480 42.92285 34896 ft 475 kts 158°
2026-04-21 15:55 53.27395 42.96622 34892 ft 475 kts 158°
2026-04-21 15:55 53.21305 43.00946 34901 ft 475 kts 158°
2026-04-21 15:56 53.15260 43.05226 34896 ft 474 kts 158°
2026-04-21 15:56 53.09197 43.09597 34891 ft 474 kts 158°
2026-04-21 15:57 53.03183 43.14092 34891 ft 474 kts 157°
2026-04-21 15:57 52.97164 43.18591 34893 ft 474 kts 157°
2026-04-21 15:58 52.91139 43.23058 34896 ft 474 kts 158°
2026-04-21 15:58 52.85111 43.27500 34891 ft 474 kts 158°
2026-04-21 15:59 52.79084 43.31925 34891 ft 474 kts 158°
2026-04-21 15:59 52.73049 43.36343 34896 ft 474 kts 158°
2026-04-21 16:00 52.67054 43.40719 34892 ft 474 kts 158°
2026-04-21 16:00 52.61021 43.45110 34895 ft 474 kts 158°
2026-04-21 16:01 52.54982 43.49491 34887 ft 474 kts 158°
2026-04-21 16:01 52.48941 43.53861 34888 ft 474 kts 158°
2026-04-21 16:02 52.43927 43.57478 34889 ft 474 kts 158°
2026-04-21 16:02 52.37889 43.61822 34893 ft 474 kts 158°
2026-04-21 16:03 52.31854 43.66151 34893 ft 474 kts 159°
2026-04-21 16:03 52.25812 43.70472 34894 ft 474 kts 159°
2026-04-21 16:04 52.19768 43.74781 34901 ft 474 kts 159°
2026-04-21 16:04 52.13728 43.79075 34910 ft 474 kts 159°
2026-04-21 16:05 52.07685 43.83358 34904 ft 474 kts 159°
2026-04-21 16:05 52.01669 43.87609 34909 ft 474 kts 159°
2026-04-21 16:06 51.95617 43.91873 34909 ft 474 kts 159°
2026-04-21 16:06 51.89567 43.96123 34916 ft 474 kts 159°
2026-04-21 16:07 51.83521 44.00359 34915 ft 474 kts 159°
2026-04-21 16:07 51.77463 44.04590 34915 ft 474 kts 159°
2026-04-21 16:08 51.68374 44.10914 34915 ft 474 kts 159°
2026-04-21 16:09 51.62325 44.15108 34920 ft 473 kts 160°
2026-04-21 16:09 51.56274 44.19291 34920 ft 473 kts 160°
2026-04-21 16:10 51.50220 44.23465 34917 ft 473 kts 160°
2026-04-21 16:10 51.44174 44.27621 34922 ft 472 kts 160°
2026-04-21 16:11 51.38176 44.31732 34923 ft 471 kts 160°
2026-04-21 16:11 51.32147 44.35852 34924 ft 471 kts 160°
2026-04-21 16:12 51.26126 44.39957 34928 ft 470 kts 160°
2026-04-21 16:12 51.20119 44.44036 34930 ft 468 kts 161°
2026-04-21 16:13 51.13879 44.46481 34929 ft 459 kts 178°
2026-04-21 16:13 51.07552 44.46278 34929 ft 453 kts 187°
2026-04-21 16:14 51.01266 44.45591 34931 ft 452 kts 187°
2026-04-21 16:14 50.95027 44.44949 34929 ft 451 kts 187°
2026-04-21 16:15 50.88762 44.44350 34933 ft 451 kts 186°
2026-04-21 16:15 50.82509 44.43769 34929 ft 450 kts 186°
2026-04-21 16:16 50.76256 44.43191 34939 ft 449 kts 186°
2026-04-21 16:16 50.70017 44.42615 34935 ft 448 kts 187°
2026-04-21 16:17 50.63788 44.42041 34923 ft 448 kts 187°
2026-04-21 16:17 50.57570 44.41469 34935 ft 447 kts 187°
2026-04-21 16:18 50.51395 44.40902 34933 ft 447 kts 187°
2026-04-21 16:18 50.45183 44.40333 34933 ft 447 kts 187°
2026-04-21 16:19 50.38972 44.39766 34931 ft 447 kts 187°
2026-04-21 16:19 50.32761 44.39201 34935 ft 447 kts 187°
2026-04-21 16:20 50.26555 44.38637 34935 ft 447 kts 187°
2026-04-21 16:20 50.20341 44.38074 34938 ft 447 kts 187°
2026-04-21 16:21 50.14162 44.37516 34933 ft 447 kts 187°
2026-04-21 16:21 50.07951 44.36956 34935 ft 447 kts 187°
2026-04-21 16:22 50.01725 44.36396 34936 ft 447 kts 187°
2026-04-21 16:22 49.95506 44.35839 34942 ft 447 kts 187°
2026-04-21 16:23 49.89282 44.35282 34939 ft 447 kts 187°
2026-04-21 16:23 49.83067 44.34728 34942 ft 447 kts 187°
2026-04-21 16:24 49.76848 44.34175 34939 ft 447 kts 187°
2026-04-21 16:24 49.70629 44.33623 34939 ft 447 kts 187°
2026-04-21 16:25 49.64465 44.33077 34945 ft 446 kts 187°
2026-04-21 16:25 49.58247 44.32934 34934 ft 451 kts 178°
2026-04-21 16:26 49.52095 44.35217 34934 ft 461 kts 163°
2026-04-21 16:26 49.46167 44.39047 34935 ft 462 kts 162°
2026-04-21 16:27 49.40248 44.42909 34933 ft 462 kts 162°
2026-04-21 16:27 49.34326 44.46699 34933 ft 461 kts 163°
2026-04-21 16:28 49.28387 44.50456 34942 ft 461 kts 163°
2026-04-21 16:28 49.22450 44.54196 34932 ft 461 kts 163°
2026-04-21 16:29 49.16516 44.57927 34937 ft 461 kts 163°
2026-04-21 16:29 49.10577 44.61653 34942 ft 461 kts 163°
2026-04-21 16:30 49.04634 44.65372 34943 ft 461 kts 163°
2026-04-21 16:30 48.98735 44.69055 34930 ft 461 kts 163°
2026-04-21 16:31 48.92796 44.72754 34930 ft 461 kts 163°
2026-04-21 16:31 48.86862 44.76439 34933 ft 461 kts 163°
2026-04-21 16:32 48.81186 44.81133 34930 ft 473 kts 148°
2026-04-21 16:32 48.76023 44.87339 34933 ft 474 kts 147°
2026-04-21 16:33 48.70868 44.93580 34936 ft 474 kts 147°
2026-04-21 16:33 48.65689 44.99739 34940 ft 473 kts 148°
2026-04-21 16:34 48.60490 45.05859 34942 ft 473 kts 148°
2026-04-21 16:34 48.55287 45.11965 34939 ft 473 kts 148°
2026-04-21 16:35 48.50087 45.18057 34936 ft 473 kts 148°
2026-04-21 16:35 48.44926 45.24090 34938 ft 472 kts 148°
2026-04-21 16:36 48.39677 45.30004 34938 ft 467 kts 154°
2026-04-21 16:36 48.33948 45.34398 34944 ft 461 kts 160°
2026-04-21 16:37 48.28151 45.38534 34942 ft 461 kts 160°
2026-04-21 16:37 48.22363 45.42708 34940 ft 461 kts 160°
2026-04-21 16:38 48.16591 45.46914 34940 ft 461 kts 160°
2026-04-21 16:38 48.10829 45.51121 34945 ft 460 kts 159°
2026-04-21 16:39 48.05064 45.55319 34942 ft 460 kts 159°
2026-04-21 16:39 47.99310 45.59496 34944 ft 460 kts 159°
2026-04-21 16:40 47.93551 45.63666 34944 ft 459 kts 160°
2026-04-21 16:40 47.87840 45.67790 34944 ft 459 kts 160°
2026-04-21 16:41 47.83024 45.71261 34946 ft 458 kts 160°
2026-04-21 16:41 47.76353 45.76056 34951 ft 458 kts 160°
2026-04-21 16:42 47.70612 45.80171 34950 ft 457 kts 160°
2026-04-21 16:42 47.64874 45.84275 34954 ft 457 kts 160°
2026-04-21 16:43 47.59184 45.88334 34955 ft 456 kts 160°
2026-04-21 16:43 47.53465 45.92405 34955 ft 456 kts 160°
2026-04-21 16:44 47.47752 45.96461 34953 ft 455 kts 160°
2026-04-21 16:44 47.42031 46.00514 34955 ft 455 kts 160°
2026-04-21 16:45 47.36310 46.04557 34956 ft 455 kts 160°
2026-04-21 16:45 47.30602 46.08588 34958 ft 455 kts 160°
2026-04-21 16:46 47.24898 46.12608 34962 ft 454 kts 160°
2026-04-21 16:46 47.19192 46.16620 34966 ft 454 kts 160°
2026-04-21 16:47 47.13485 46.20624 34970 ft 454 kts 160°
2026-04-21 16:47 47.07772 46.24622 34968 ft 455 kts 160°
2026-04-21 16:48 47.01971 46.27946 34971 ft 446 kts 170°
2026-04-21 16:48 46.95952 46.30200 34969 ft 446 kts 171°
2026-04-21 16:49 46.89918 46.32417 34971 ft 447 kts 171°
2026-04-21 16:49 46.83897 46.34669 34973 ft 447 kts 171°
2026-04-21 16:50 46.77867 46.36950 34974 ft 447 kts 171°
2026-04-21 16:50 46.72868 46.38843 34973 ft 447 kts 171°
2026-04-21 16:51 46.65863 46.41492 34977 ft 447 kts 171°
2026-04-21 16:51 46.60820 46.43393 34980 ft 447 kts 171°
2026-04-21 16:52 46.54872 46.45633 34957 ft 438 kts 171°
2026-04-21 16:52 46.48979 46.47847 35016 ft 439 kts 171°
2026-04-21 16:53 46.43014 46.50072 35104 ft 445 kts 171°
2026-04-21 16:53 46.37007 46.52315 35311 ft 446 kts 171°
2026-04-21 16:53 46.34002 46.53437 35455 ft 445 kts 171°
2026-04-21 16:54 46.30997 46.54557 35581 ft 445 kts 171°
2026-04-21 16:54 46.28001 46.55672 35697 ft 446 kts 171°
2026-04-21 16:54 46.24992 46.56791 35825 ft 445 kts 171°
2026-04-21 16:54 46.22033 46.57890 35930 ft 445 kts 171°
2026-04-21 16:55 46.19026 46.59005 35971 ft 445 kts 171°
2026-04-21 16:55 46.13024 46.61226 35979 ft 446 kts 171°
2026-04-21 16:56 46.07000 46.63451 35994 ft 446 kts 171°
2026-04-21 16:56 46.00985 46.65668 35989 ft 446 kts 171°
2026-04-21 16:57 45.94966 46.67881 35991 ft 446 kts 171°
2026-04-21 16:57 45.88948 46.70089 35984 ft 446 kts 171°
2026-04-21 16:58 45.82978 46.72275 35987 ft 445 kts 171°
2026-04-21 16:58 45.76987 46.74463 35986 ft 444 kts 171°
2026-04-21 16:59 45.70996 46.76646 35989 ft 443 kts 171°
2026-04-21 16:59 45.65006 46.78824 35992 ft 443 kts 171°
2026-04-21 17:00 45.59074 46.80976 35995 ft 442 kts 171°
2026-04-21 17:00 45.54087 46.82782 35995 ft 442 kts 171°
2026-04-21 17:01 45.47158 46.85285 35993 ft 441 kts 171°
2026-04-21 17:01 45.41209 46.87430 35996 ft 441 kts 171°
2026-04-21 17:02 45.35270 46.89566 35996 ft 440 kts 171°
2026-04-21 17:02 45.29336 46.91695 35995 ft 440 kts 171°
2026-04-21 17:03 45.23406 46.93819 35994 ft 439 kts 171°
2026-04-21 17:03 45.17483 46.95935 35995 ft 439 kts 172°
2026-04-21 17:04 45.11595 46.98034 35993 ft 438 kts 172°
2026-04-21 17:04 45.05689 47.00136 35990 ft 438 kts 172°
2026-04-21 17:05 44.99784 47.02233 35995 ft 438 kts 172°
2026-04-21 17:05 44.93870 47.04328 35997 ft 438 kts 172°
2026-04-21 17:06 44.87956 47.06418 35990 ft 438 kts 172°
2026-04-21 17:06 44.82041 47.08505 35992 ft 438 kts 172°
2026-04-21 17:07 44.76125 47.10588 35994 ft 438 kts 172°
2026-04-21 17:07 44.70202 47.12669 35991 ft 439 kts 172°
2026-04-21 17:08 44.64277 47.14746 35990 ft 439 kts 172°
2026-04-21 17:08 44.58347 47.16820 35991 ft 439 kts 172°
2026-04-21 17:09 44.49437 47.19930 35983 ft 440 kts 172°
2026-04-21 17:09 44.43521 47.21988 35988 ft 440 kts 172°
2026-04-21 17:10 44.37571 47.24055 35984 ft 441 kts 172°
2026-04-21 17:10 44.31611 47.26121 35988 ft 441 kts 172°
2026-04-21 17:11 44.25643 47.28184 35987 ft 442 kts 172°
2026-04-21 17:11 44.19675 47.30244 35993 ft 442 kts 172°
2026-04-21 17:12 44.13731 47.32291 35981 ft 442 kts 172°
2026-04-21 17:12 44.07759 47.34344 35995 ft 443 kts 172°
2026-04-21 17:13 44.01769 47.36398 35987 ft 443 kts 172°
2026-04-21 17:13 43.95785 47.38446 35987 ft 443 kts 172°
2026-04-21 17:14 43.89799 47.40491 35991 ft 443 kts 172°
2026-04-21 17:14 43.83812 47.42532 35984 ft 443 kts 172°
2026-04-21 17:15 43.77824 47.44570 35990 ft 443 kts 172°
2026-04-21 17:15 43.71818 47.46215 35980 ft 433 kts 186°
2026-04-21 17:16 43.68886 47.45642 35991 ft 423 kts 200°
2026-04-21 17:16 43.66199 47.44058 35992 ft 418 kts 213°
2026-04-21 17:16 43.63898 47.41649 35998 ft 415 kts 226°
2026-04-21 17:16 43.62107 47.38603 35999 ft 415 kts 237°
2026-04-21 17:17 43.60793 47.35052 35987 ft 418 kts 249°
2026-04-21 17:17 43.60130 47.31082 35999 ft 422 kts 259°
2026-04-21 17:17 43.59464 47.23074 35995 ft 424 kts 261°
2026-04-21 17:18 43.58861 47.14960 35986 ft 425 kts 261°
2026-04-21 17:18 43.58211 47.06842 35984 ft 426 kts 260°
2026-04-21 17:19 43.57526 46.98723 35979 ft 426 kts 260°
2026-04-21 17:19 43.56826 46.90611 35983 ft 426 kts 260°
2026-04-21 17:20 43.56124 46.82535 35987 ft 427 kts 260°
2026-04-21 17:20 43.55412 46.74413 35977 ft 427 kts 260°
2026-04-21 17:21 43.54695 46.66291 35971 ft 427 kts 260°
2026-04-21 17:21 43.53972 46.58165 35973 ft 427 kts 260°
2026-04-21 17:22 43.53241 46.50030 35969 ft 427 kts 259°
2026-04-21 17:22 43.52506 46.41902 35972 ft 428 kts 259°
2026-04-21 17:23 43.51762 46.33753 35961 ft 428 kts 259°
2026-04-21 17:23 43.51015 46.25620 35965 ft 428 kts 259°
2026-04-21 17:24 43.50261 46.17475 35960 ft 428 kts 259°
2026-04-21 17:24 43.49507 46.09395 35963 ft 428 kts 259°
2026-04-21 17:25 43.49157 46.01182 35955 ft 434 kts 271°
2026-04-21 17:25 43.49858 45.92899 35966 ft 435 kts 273°
2026-04-21 17:26 43.50586 45.84627 35965 ft 435 kts 273°
2026-04-21 17:26 43.51285 45.76340 35966 ft 435 kts 272°
2026-04-21 17:27 43.51963 45.68043 35968 ft 436 kts 272°
2026-04-21 17:27 43.52629 45.59749 35968 ft 436 kts 272°
2026-04-21 17:28 43.53290 45.51447 35961 ft 436 kts 272°
2026-04-21 17:28 43.53945 45.43145 35959 ft 436 kts 272°
2026-04-21 17:29 43.54595 45.34839 35951 ft 435 kts 272°
2026-04-21 17:29 43.55234 45.26593 35944 ft 435 kts 272°
2026-04-21 17:30 43.55871 45.18290 35942 ft 435 kts 272°
2026-04-21 17:30 43.56503 45.09969 35951 ft 436 kts 273°
2026-04-21 17:31 43.57129 45.01650 35942 ft 437 kts 272°
2026-04-21 17:31 43.57751 44.93313 35939 ft 435 kts 273°
2026-04-21 17:32 43.58357 44.85126 35933 ft 425 kts 273°
2026-04-21 17:32 43.58949 44.77012 35745 ft 426 kts 272°
2026-04-21 17:33 43.59239 44.73000 35209 ft 426 kts 272°
2026-04-21 17:33 43.59533 44.68929 34574 ft 426 kts 272°
2026-04-21 17:33 43.59825 44.64859 33958 ft 427 kts 272°
2026-04-21 17:33 43.60115 44.60783 33198 ft 427 kts 272°
2026-04-21 17:34 43.60404 44.56720 32594 ft 425 kts 272°
2026-04-21 17:34 43.60691 44.52680 32116 ft 419 kts 272°
2026-04-21 17:34 43.60972 44.48698 31632 ft 415 kts 272°
2026-04-21 17:34 43.61249 44.44754 31164 ft 411 kts 272°
2026-04-21 17:35 43.61521 44.40846 30702 ft 407 kts 272°
2026-04-21 17:35 43.61789 44.36970 30243 ft 404 kts 272°
2026-04-21 17:35 43.62054 44.33122 29750 ft 401 kts 272°
2026-04-21 17:35 43.62316 44.29310 29254 ft 397 kts 273°
2026-04-21 17:36 43.62574 44.25538 28783 ft 392 kts 273°
2026-04-21 17:36 43.62828 44.21810 28331 ft 388 kts 273°
2026-04-21 17:36 43.62993 44.19365 28021 ft 386 kts 273°
2026-04-21 17:36 43.63605 44.15281 27502 ft 386 kts 287°
2026-04-21 17:37 43.64687 44.11946 27088 ft 385 kts 296°
2026-04-21 17:37 43.66225 44.08873 26663 ft 386 kts 307°
2026-04-21 17:37 43.67413 44.07048 26381 ft 385 kts 309°
2026-04-21 17:37 43.69830 44.03490 25790 ft 382 kts 309°
2026-04-21 17:38 43.71653 44.00821 25347 ft 380 kts 309°
2026-04-21 17:38 43.73453 43.98161 24915 ft 378 kts 309°
2026-04-21 17:38 43.75233 43.95505 24489 ft 376 kts 309°
2026-04-21 17:38 43.77002 43.92846 24057 ft 374 kts 309°
2026-04-21 17:39 43.78759 43.90193 23631 ft 373 kts 309°
2026-04-21 17:39 43.80508 43.87551 23143 ft 372 kts 309°
2026-04-21 17:39 43.82247 43.84919 22670 ft 370 kts 309°
2026-04-21 17:39 43.83975 43.82311 22231 ft 367 kts 310°
2026-04-21 17:40 43.85971 43.80075 21806 ft 370 kts 326°
2026-04-21 17:40 43.88207 43.78355 21410 ft 368 kts 328°
2026-04-21 17:40 43.89703 43.77253 21119 ft 367 kts 328°
2026-04-21 17:40 43.91956 43.75608 20695 ft 365 kts 328°
2026-04-21 17:41 43.94189 43.73967 20276 ft 363 kts 328°
2026-04-21 17:41 43.97127 43.71782 19726 ft 360 kts 328°
2026-04-21 17:41 43.98612 43.70668 19447 ft 359 kts 328°
2026-04-21 17:41 44.01513 43.68477 18904 ft 357 kts 328°
2026-04-21 17:42 44.02979 43.67366 18633 ft 356 kts 328°
2026-04-21 17:42 44.05150 43.65717 18218 ft 354 kts 328°
2026-04-21 17:42 44.07282 43.64095 17761 ft 353 kts 328°
2026-04-21 17:42 44.09457 43.62439 17315 ft 351 kts 328°
2026-04-21 17:43 44.11597 43.60808 16894 ft 349 kts 328°
2026-04-21 17:43 44.13717 43.59192 16483 ft 347 kts 328°
2026-04-21 17:43 44.15829 43.57579 16077 ft 345 kts 328°
2026-04-21 17:43 44.17924 43.55979 15729 ft 341 kts 328°
2026-04-21 17:44 44.19973 43.54412 15332 ft 340 kts 328°
2026-04-21 17:44 44.22064 43.52812 14943 ft 338 kts 328°
2026-04-21 17:44 44.24095 43.51257 14550 ft 337 kts 328°
2026-04-21 17:44 44.26133 43.49667 14150 ft 334 kts 324°
2026-04-21 17:45 44.27822 43.47507 13740 ft 327 kts 304°
2026-04-21 17:45 44.29099 43.44869 13350 ft 323 kts 300°
2026-04-21 17:45 44.30286 43.42265 12960 ft 321 kts 300°
2026-04-21 17:45 44.31475 43.39641 12579 ft 319 kts 300°
2026-04-21 17:46 44.32659 43.37043 12203 ft 316 kts 300°
2026-04-21 17:46 44.33841 43.34467 11843 ft 314 kts 300°
2026-04-21 17:46 44.35020 43.31909 11475 ft 311 kts 300°
2026-04-21 17:46 44.36191 43.29373 11115 ft 309 kts 300°
2026-04-21 17:47 44.37350 43.26867 10760 ft 306 kts 299°
2026-04-21 17:47 44.38504 43.24369 10410 ft 304 kts 299°
2026-04-21 17:47 44.39650 43.21889 10060 ft 302 kts 299°
2026-04-21 17:47 44.40780 43.19440 9939 ft 293 kts 299°
2026-04-21 17:48 44.41856 43.17109 9925 ft 280 kts 299°
2026-04-21 17:48 44.42894 43.14857 9867 ft 270 kts 298°
2026-04-21 17:48 44.43891 43.12689 9792 ft 261 kts 298°
2026-04-21 17:48 44.44861 43.10577 9509 ft 256 kts 298°
2026-04-21 17:49 44.45835 43.08451 8984 ft 257 kts 299°
2026-04-21 17:49 44.46789 43.06374 8711 ft 251 kts 299°
2026-04-21 17:49 44.47722 43.04340 8657 ft 246 kts 299°
2026-04-21 17:49 44.48645 43.02328 8528 ft 246 kts 299°
2026-04-21 17:50 44.49240 43.00116 8236 ft 238 kts 273°
2026-04-21 17:50 44.49036 42.97982 8130 ft 215 kts 250°
2026-04-21 17:50 44.48305 42.96268 7983 ft 197 kts 232°
2026-04-21 17:50 44.47295 42.95036 7685 ft 190 kts 213°
2026-04-21 17:51 44.46110 42.94281 7376 ft 183 kts 206°
2026-04-21 17:51 44.44970 42.93664 7082 ft 170 kts 205°
2026-04-21 17:51 44.43911 42.93096 6790 ft 156 kts 205°
2026-04-21 17:51 44.42904 42.92552 6460 ft 154 kts 205°
2026-04-21 17:52 44.41935 42.91919 6116 ft 153 kts 214°
2026-04-21 17:52 44.41033 42.91126 5780 ft 153 kts 216°
2026-04-21 17:52 44.40134 42.90327 5450 ft 153 kts 215°
2026-04-21 17:52 44.39232 42.89532 5186 ft 150 kts 215°
2026-04-21 17:53 44.38382 42.88786 5190 ft 149 kts 215°
2026-04-21 17:53 44.37487 42.87999 5109 ft 154 kts 214°
2026-04-21 17:53 44.36595 42.87220 4947 ft 151 kts 215°
2026-04-21 17:53 44.35699 42.86435 4725 ft 153 kts 215°
2026-04-21 17:54 44.34684 42.85974 4529 ft 153 kts 186°
2026-04-21 17:54 44.33643 42.86061 4387 ft 152 kts 164°
2026-04-21 17:54 44.32831 42.87006 4342 ft 158 kts 130°
2026-04-21 17:54 44.32131 42.88182 4125 ft 156 kts 130°
2026-04-21 17:55 44.31448 42.89337 3904 ft 151 kts 130°
2026-04-21 17:55 44.30819 42.90499 3710 ft 150 kts 127°
2026-04-21 17:55 44.30232 42.91706 3516 ft 149 kts 126°
2026-04-21 17:55 44.29672 42.92911 3316 ft 147 kts 124°
2026-04-21 17:56 44.29125 42.94106 3127 ft 146 kts 124°
2026-04-21 17:56 44.28584 42.95295 2925 ft 144 kts 124°
2026-04-21 17:56 44.28047 42.96477 2734 ft 144 kts 124°
2026-04-21 17:56 44.27513 42.97652 2534 ft 142 kts 124°
2026-04-21 17:57 44.26989 42.98805 2340 ft 140 kts 124°
2026-04-21 17:57 44.26463 42.99964 2145 ft 142 kts 123°
2026-04-21 17:57 44.25934 43.01128 1944 ft 142 kts 123°
2026-04-21 17:57 44.25406 43.02292 1740 ft 142 kts 121°
2026-04-21 17:58 44.24905 43.03472 1487 ft 139 kts 121°
2026-04-21 17:58 44.24381 43.04589 1278 ft 139 kts 123°
2026-04-21 17:58 44.23850 43.05739 1111 ft 141 kts 121°
2026-04-21 17:58 44.23345 43.06857 1046 ft 127 kts 122°
2026-04-21 17:59 44.22948 43.07720 1050 ft 84 kts 121°
2026-04-21 17:59 44.22708 43.08249 1049 ft 53 kts 123°
2026-04-21 17:59 44.22522 43.08646 1053 ft 43 kts 123°
2026-04-21 17:59 44.22304 43.08881 1051 ft 30 kts 152°
2026-04-21 18:00 44.22279 43.08901 1052 ft 2 kts 152°
2026-04-21 18:00 44.22269 43.08908 1052 ft 2 kts 152°
2026-04-21 18:00 44.22243 43.08927 1052 ft 8 kts 151°
2026-04-21 18:00 44.22174 43.08979 1052 ft 14 kts 152°
2026-04-21 18:01 44.22069 43.09058 1051 ft 19 kts 151°
2026-04-21 18:01 44.21951 43.09129 1050 ft 18 kts 183°
2026-04-21 18:01 44.21838 43.09062 1051 ft 18 kts 170°
2026-04-21 18:01 44.21798 43.09116 1051 ft 1 kts 121°
2026-04-21 18:02 44.21774 43.09121 1050 ft 7 kts 198°
2026-04-21 18:02 44.21727 43.09082 1050 ft 8 kts 212°
2026-04-21 18:02 44.21715 43.09072 1050 ft 0 kts 212°